Location: Kaltenbach
(49.2000°N, 7.7500°E)
Time: 23:42:34
(UTC+00:00)

ISS - Pass Details

Date: 24 January 2020
Orbit: 415 x 423 km, 51.6° (Epoch: 29 February)

Event Time Altitude Azimuth Distance (km) Brightness Sun altitude
Rises 18:55:32 0° 259° (W) 2,377 1.3 -26.5°
Reaches altitude 10° 18:57:39 10° 262° (W) 1,512 0.0 -26.8°
Enters shadow 18:59:12 25° 268° (W) 903 -1.4 -27.1°
